[[{"header":{"parameterUnit":"m.s-1","parameterCategory":1,"la1":30.2991,"la2":30.254,"lo1":-89.0895,"lo2":-89.0444,"dy":0.0017,"dx":0.0017,"nx":28,"ny":28,"refTime":"2024-03-16T09:00:00:Z","depth":0,"parameterNumber":2,"parameterNumberName":"U-component_of_WINDS"},"data":[0,0,0,0,0,0,0,0,0,0,0,0,0,0,0,0,0,0,0,0,0,0,0,0,0,0,0,0,0,0,0,0,0,0,0,0,0,0,0,0,0,0,0,0,0,0,0,0,0,0,0,0,0,0,0,0,0,0,-0.9036,-0.9036,0,-0.899,-0.899,-0.8989,-0.8987,-0.8988,-0.8988,-0.8989,-0.8941,-0.8939,-0.8938,0,0,0,0,0,0,0,0,0,0,0,0,0,-0.9123,-0.9121,-0.9036,-0.9036,-0.9035,-0.899,-0.899,-0.8989,-0.8987,-0.8988,-0.8988,-0.8989,-0.8942,-0.894,-0.8937,0,0,0,0,0,0,0,0,0,0,0,0,0,-0.9082,-0.9121,-0.9036,-0.9029,-0.9028,-0.8991,-0.899,-0.8989,-0.8987,-0.8988,-0.8988,-0.8989,-0.8942,-0.894,-0.8937,-0.8904,0,0,-0.8929,-0.8928,0,0,0,0,0,0,0,0,-0.9084,-0.9079,-0.903,-0.9029,-0.9028,-0.8995,-0.9003,-0.8961,-0.8987,-0.9002,-0.8989,-0.899,-0.8958,-0.8954,-0.8944,-0.8902,-0.89,-0.8929,-0.8927,-0.8926,-0.8925,0,0,0,0,0,0,0,-0.9087,-0.9081,-0.9018,-0.903,-0.9028,-0.9028,-0.9023,-0.8995,-0.8976,-0.9001,-0.9001,-0.8995,-0.8958,-0.8947,-0.8943,-0.8899,-0.8929,-0.8926,-0.8925,-0.8924,-0.883,-0.8829,0,0,0,0,0,0,-0.9091,-0.9083,-0.902,-0.9017,-0.9059,-0.9026,-0.902,-0.9005,-0.8977,-0.8973,-0.8995,-0.8995,-0.8951,-0.8946,-0.8941,-0.8902,-0.8926,-0.8924,-0.8922,-0.8831,-0.883,-0.8829,0,0,0,0,0,0,-0.9093,-0.9086,-0.9021,-0.905,-0.9042,-0.9023,-0.9006,-0.9004,-0.8992,-0.8972,-0.8969,-0.8987,-0.8951,-0.8945,-0.8914,-0.89,-0.8922,-0.892,-0.8832,-0.8831,-0.883,-0.8823,0,0,0,0,0,0,-0.9096,-0.9086,-0.9073,-0.905,-0.904,-0.8995,-0.9005,-0.9002,-0.8988,-0.8988,-0.8963,-0.896,-0.8951,-0.8918,-0.8911,-0.8897,-0.8918,-0.8833,-0.8832,-0.883,-0.8824,-0.8821,-0.8819,0,0,0,0,0,-0.9099,-0.9073,-0.9073,-0.9065,-0.9024,-0.8994,-0.8988,-0.8979,-0.8987,-0.8974,-0.8961,-0.8961,-0.8903,-0.8915,-0.8907,-0.8892,-0.8834,-0.8832,-0.883,-0.8825,-0.8822,-0.8819,0,0,0,0,0,0,-0.9095,-0.9069,-0.9069,-0.9035,-0.9017,-0.8993,-0.8977,-0.8976,-0.8955,-0.8956,-0.8945,-0.894,-0.8909,-0.8898,-0.8911,-0.886,-0.8869,-0.8866,-0.8868,-0.8865,-0.8862,-0.8866,-0.8916,0,0,0,0,0,-0.909,-0.9068,-0.9047,-0.9019,-0.901,-0.8995,-0.8982,-0.8976,-0.8957,-0.8949,-0.8934,-0.8915,-0.8893,-0.8878,-0.8857,-0.8823,-0.8818,-0.8809,-0.8806,-0.8804,-0.8801,-0.8783,-0.8779,-0.8823,-0.8823,-0.8823,0,0,-0.908,-0.9063,-0.905,-0.9018,-0.9003,-0.8981,-0.8988,-0.8964,-0.8948,-0.8945,-0.8915,-0.8904,-0.8882,-0.885,-0.8835,-0.8839,-0.8788,-0.8801,-0.88,-0.8798,-0.8781,-0.8777,-0.8773,-0.8821,-0.8821,-0.8822,0,0,-0.905,-0.9035,-0.901,-0.8995,-0.8973,-0.8964,-0.8958,-0.8936,-0.8928,-0.8898,-0.8896,-0.8877,-0.8838,-0.8824,-0.8811,-0.8777,-0.8777,-0.8771,-0.8757,-0.874,-0.8737,-0.8733,-0.8722,-0.8718,-0.8768,-0.8768,-0.8768,0,-0.9039,-0.9006,-0.8997,-0.8973,-0.896,-0.8958,-0.8933,-0.8919,-0.8891,-0.8882,-0.8887,-0.884,-0.8825,-0.879,-0.8782,-0.8772,-0.8765,-0.8773,-0.8738,-0.8735,-0.8732,-0.8721,-0.8716,-0.8767,-0.8767,-0.8767,-0.8767,0,-0.8995,-0.8971,-0.8954,-0.8928,-0.8912,-0.8888,-0.8876,-0.8862,-0.8858,-0.8849,-0.8819,-0.8802,-0.8777,-0.8768,-0.8764,-0.8733,-0.8736,-0.874,-0.8749,-0.8727,-0.8717,-0.8712,-0.8766,-0.8767,-0.8767,-0.8767,0,0,-0.8959,-0.893,-0.8924,-0.8912,-0.8889,-0.8871,-0.8847,-0.8824,-0.8811,-0.8793,-0.8773,-0.8742,-0.8745,-0.8731,-0.8726,-0.8711,-0.8686,-0.8716,-0.8716,-0.8712,-0.8652,-0.8649,-0.8644,-0.8686,-0.8685,-0.8685,-0.8654,0,-0.8926,-0.8884,-0.8877,-0.884,-0.8819,-0.8818,-0.8797,-0.8781,-0.8772,-0.8753,-0.8743,-0.8721,-0.8727,-0.8719,-0.8704,-0.8692,-0.8674,-0.8695,-0.8668,-0.8667,-0.8673,-0.8639,-0.8636,-0.8607,-0.865,-0.8649,-0.8648,0,-0.8882,-0.8863,-0.8824,-0.8805,-0.8796,-0.8778,-0.8756,-0.8738,-0.872,-0.8715,-0.87,-0.8697,-0.8673,-0.8684,-0.8652,-0.8666,-0.8655,-0.8648,-0.8647,-0.8643,-0.8656,-0.8635,-0.8598,-0.8594,-0.8642,-0.8642,-0.8643,0,-0.8861,-0.8825,-0.8798,-0.8788,-0.8765,-0.8752,-0.8742,-0.8725,-0.8712,-0.8693,-0.8685,-0.8664,-0.8652,-0.8636,-0.8628,-0.8637,-0.8596,-0.8607,-0.8591,-0.8592,-0.8582,-0.8583,-0.8543,-0.8575,-0.8575,-0.8575,-0.8576,0,-0.8825,-0.8801,-0.8788,-0.8771,-0.8745,-0.8738,-0.8712,-0.8702,-0.8687,-0.8669,-0.8667,-0.865,-0.864,-0.8621,-0.8615,-0.8589,-0.8584,-0.8579,-0.8578,-0.8579,-0.858,-0.8572,-0.8573,-0.8574,-0.8575,-0.8575,-0.8575,0,-0.8796,-0.8786,-0.8756,-0.8737,-0.8732,-0.8714,-0.8698,-0.8682,-0.8673,-0.865,-0.8644,-0.8631,-0.861,-0.86,-0.8573,-0.8569,-0.854,-0.854,-0.8546,-0.8546,-0.8531,-0.8533,-0.8484,-0.8478,-0.8514,-0.8514,-0.8514,0,-0.8773,-0.8755,-0.8735,-0.8723,-0.8712,-0.8692,-0.8679,-0.8672,-0.8658,-0.8638,-0.8624,-0.8603,-0.8585,-0.8551,-0.8539,-0.8519,-0.8519,-0.8503,-0.8516,-0.8518,-0.8519,-0.852,-0.8519,-0.8501,-0.85,-0.85,-0.85,0,-0.8735,-0.8732,-0.8713,-0.8693,-0.8677,-0.8661,-0.8645,-0.8636,-0.8626,-0.8611,-0.8589,-0.8576,-0.8549,-0.8528,-0.8508,-0.8498,-0.8497,-0.8496,-0.8492,-0.8493,-0.8498,-0.8495,-0.854,-0.8497,-0.8497,-0.8498,-0.8498,-0.8498,-0.8709,-0.8693,-0.8677,-0.8656,-0.8644,-0.863,-0.8614,-0.8604,-0.8586,-0.8564,-0.8561,-0.8538,-0.8522,-0.8495,-0.8484,-0.8467,-0.847,-0.8464,-0.8462,-0.846,-0.846,-0.8501,-0.8463,-0.8463,-0.8463,-0.8463,-0.8463,0,-0.867,-0.866,-0.8642,-0.862,-0.8605,-0.8606,-0.8589,-0.8576,-0.8556,-0.8541,-0.8525,-0.85,-0.8481,-0.8468,-0.8448,-0.8437,-0.8436,-0.8432,-0.8432,-0.843,-0.8457,-0.8463,-0.8433,-0.8433,-0.8433,-0.8433,-0.8433,-0.8433,-0.8649,-0.8623,-0.8618,-0.8586,-0.8576,-0.8554,-0.8544,-0.8532,-0.852,-0.8493,-0.8477,-0.8469,-0.8455,-0.8435,-0.8417,-0.8414,-0.8407,-0.8403,-0.84,-0.8425,-0.8428,-0.8431,-0.8437,-0.8401,-0.8401,-0.8374,-0.8374,-0.8374]},{"header":{"parameterUnit":"m.s-1","parameterCategory":1,"la1":30.2991,"la2":30.254,"lo1":-89.0895,"lo2":-89.0444,"dy":0.0017,"dx":0.0017,"nx":28,"ny":28,"refTime":"2024-03-16T09:00:00:Z","depth":0,"parameterNumber":3,"parameterNumberName":"V-component_of_WINDS"},"data":[0,0,0,0,0,0,0,0,0,0,0,0,0,0,0,0,0,0,0,0,0,0,0,0,0,0,0,0,0,0,0,0,0,0,0,0,0,0,0,0,0,0,0,0,0,0,0,0,0,0,0,0,0,0,0,0,0,0,1.0572,1.0573,0,1.0591,1.0591,1.0591,1.0553,1.0551,1.055,1.0549,1.0568,1.0569,1.0571,0,0,0,0,0,0,0,0,0,0,0,0,0,1.0504,1.0505,1.0572,1.0573,1.0573,1.0591,1.0591,1.0591,1.0553,1.0551,1.055,1.0548,1.0567,1.0569,1.0571,0,0,0,0,0,0,0,0,0,0,0,0,0,1.0529,1.0506,1.0572,1.0556,1.0555,1.0591,1.0591,1.0591,1.0553,1.0551,1.0549,1.0548,1.0567,1.0569,1.0571,1.0625,0,0,1.0579,1.058,0,0,0,0,0,0,0,0,1.0528,1.0532,1.0558,1.0557,1.0556,1.0568,1.0574,1.0603,1.0554,1.0554,1.0549,1.0547,1.0569,1.0571,1.0579,1.0625,1.0626,1.0579,1.0581,1.0582,1.0583,0,0,0,0,0,0,0,1.0526,1.0531,1.058,1.0558,1.0557,1.0547,1.0549,1.0579,1.0572,1.0554,1.0551,1.0554,1.0568,1.0577,1.0579,1.0626,1.0579,1.0581,1.0583,1.0584,1.0715,1.0717,0,0,0,0,0,0,1.0526,1.0529,1.0579,1.058,1.0537,1.055,1.0552,1.0566,1.0571,1.057,1.0555,1.0552,1.0573,1.0576,1.058,1.064,1.0582,1.0584,1.0586,1.0713,1.0716,1.0718,0,0,0,0,0,0,1.0525,1.0531,1.0578,1.0554,1.0559,1.0553,1.0569,1.0567,1.0575,1.0573,1.0571,1.0565,1.0572,1.0576,1.0613,1.064,1.0585,1.0588,1.0711,1.0714,1.0717,1.0762,0,0,0,0,0,0,1.0523,1.0531,1.0551,1.0555,1.0561,1.0612,1.0571,1.0569,1.058,1.0575,1.0581,1.0581,1.0571,1.061,1.0616,1.0643,1.059,1.0709,1.0713,1.0716,1.0758,1.0767,1.0774,0,0,0,0,0,1.0521,1.0563,1.0552,1.0558,1.0586,1.0613,1.0617,1.0605,1.0582,1.0602,1.06,1.058,1.0637,1.0614,1.062,1.0648,1.0707,1.0711,1.0716,1.0755,1.0765,1.0773,0,0,0,0,0,0,1.0563,1.0563,1.0551,1.0596,1.0605,1.0607,1.0631,1.0616,1.0631,1.0626,1.0611,1.0613,1.0652,1.0655,1.0629,1.0699,1.0668,1.0674,1.0696,1.0705,1.0712,1.071,1.0592,0,0,0,0,0,1.0577,1.06,1.0599,1.0639,1.0644,1.0637,1.0649,1.0639,1.0647,1.0651,1.0652,1.0661,1.068,1.0693,1.0711,1.076,1.0759,1.0782,1.079,1.0796,1.08,1.0824,1.0833,1.0733,1.0733,1.0733,0,0,1.0607,1.0611,1.0626,1.0648,1.0653,1.0676,1.0641,1.0667,1.0683,1.0655,1.0689,1.069,1.0699,1.0742,1.076,1.0745,1.0829,1.0802,1.0807,1.0808,1.083,1.0839,1.0848,1.0736,1.0735,1.0735,0,0,1.0673,1.0679,1.0712,1.0718,1.0727,1.0722,1.073,1.0735,1.0734,1.0768,1.0747,1.0767,1.0802,1.0808,1.0816,1.0885,1.0866,1.0892,1.093,1.0953,1.0961,1.0968,1.099,1.0998,1.0897,1.0897,1.0897,0,1.0709,1.0743,1.0731,1.0758,1.0767,1.0743,1.0775,1.0782,1.0797,1.0804,1.0787,1.0829,1.0833,1.0876,1.0892,1.0901,1.0908,1.0889,1.0961,1.0968,1.0974,1.0995,1.1003,1.0899,1.0899,1.0899,1.0899,0,1.0785,1.0809,1.0835,1.0848,1.0861,1.0891,1.0883,1.0898,1.0887,1.0884,1.0919,1.0924,1.0941,1.0952,1.0942,1.0993,1.0982,1.0964,1.0931,1.0986,1.1005,1.1014,1.0903,1.0902,1.0902,1.0901,0,0,1.0876,1.0883,1.0892,1.0897,1.0906,1.0924,1.0953,1.097,1.0981,1.0993,1.1016,1.1046,1.1028,1.1037,1.1028,1.1049,1.11,1.1027,1.1027,1.1038,1.1154,1.1166,1.1175,1.109,1.1091,1.1092,1.1152,0,1.0938,1.0987,1.0977,1.1024,1.1045,1.1023,1.1048,1.1055,1.1054,1.1071,1.107,1.109,1.1067,1.1071,1.1092,1.109,1.1123,1.1086,1.1108,1.1109,1.1104,1.1185,1.1198,1.1254,1.116,1.1161,1.1162,0,1.1017,1.1031,1.108,1.1084,1.1092,1.1115,1.1129,1.1147,1.1155,1.1152,1.1163,1.115,1.1178,1.1148,1.1185,1.116,1.1169,1.117,1.1172,1.1171,1.1137,1.1184,1.1272,1.1279,1.1174,1.1173,1.1172,0,1.1075,1.1106,1.1138,1.1144,1.1151,1.1166,1.117,1.1176,1.1187,1.12,1.1207,1.1224,1.1232,1.1245,1.1236,1.1216,1.1274,1.1244,1.1271,1.1271,1.1282,1.1281,1.137,1.1293,1.1293,1.1293,1.1293,0,1.1144,1.1174,1.1164,1.1184,1.1217,1.1206,1.1239,1.124,1.1246,1.1265,1.1249,1.1267,1.1256,1.1274,1.1268,1.1298,1.1303,1.1301,1.1298,1.13,1.13,1.1304,1.1299,1.1295,1.1295,1.1294,1.1294,0,1.1212,1.1207,1.124,1.1244,1.1245,1.1269,1.1272,1.129,1.1288,1.1313,1.1318,1.1314,1.1334,1.1328,1.135,1.1345,1.1383,1.1378,1.138,1.1377,1.1404,1.14,1.1495,1.1506,1.1426,1.1427,1.1427,0,1.1254,1.1277,1.1283,1.1294,1.1299,1.1318,1.1329,1.1319,1.1331,1.1342,1.1359,1.1377,1.1391,1.1424,1.1423,1.1439,1.1432,1.1464,1.1434,1.1435,1.1429,1.1426,1.1427,1.1469,1.147,1.1471,1.1471,0,1.133,1.1326,1.1342,1.1357,1.137,1.1382,1.1392,1.1402,1.1393,1.1408,1.1427,1.1438,1.146,1.1478,1.1493,1.1496,1.1482,1.1481,1.1488,1.1489,1.1488,1.1486,1.1393,1.1478,1.1478,1.1477,1.1477,1.1476,1.1384,1.1402,1.1409,1.1427,1.1434,1.1443,1.146,1.146,1.1476,1.1493,1.1487,1.1509,1.1517,1.1535,1.1541,1.1558,1.1545,1.1556,1.1558,1.156,1.1562,1.1488,1.1561,1.1561,1.1561,1.1561,1.1561,0,1.1456,1.1459,1.1476,1.149,1.1504,1.1491,1.1501,1.1514,1.1534,1.1542,1.1556,1.1578,1.1596,1.1597,1.1613,1.1626,1.162,1.1631,1.1628,1.1629,1.1573,1.1565,1.1635,1.1635,1.1635,1.1635,1.1635,1.1635,1.1495,1.1524,1.1521,1.1554,1.1557,1.1579,1.1585,1.1594,1.16,1.1626,1.164,1.1641,1.1646,1.1663,1.1678,1.1678,1.1683,1.1696,1.1693,1.164,1.1633,1.1626,1.1617,1.1698,1.1698,1.1746,1.1747,1.1747]}]]